Powrót do katalogu

CZ-6A DEB

AktywnyPO
NORAD 60775·DEBRIS·🇨🇳 China

Wystrzelony Aug 6, 2024 z Taiyuan Satellite Launch Center

Loading…

Następne Przeloty (najbliższe 24 godziny)

TLE

ŚwieżeSource: Space-Track

Epoka: Sep 14, 2026, 11:14 UTC

1 60775U 24140FA  26257.46869794  .00000566  00000-0  23300-3 0  9999
2 60775  89.0666 270.2837 0026290 259.4037 100.4195 14.25527309108658

Śledź CZ-6A DEB w czasie rzeczywistym z AllMySat

Download on the App Store